When you browse on this site, cookies collect data to enhance your experience and personalize the content and advertising you see.
Visit our Privacy Policy to learn more. By continuing to use the site, you agree to this use of cookies and data.
  • En España
  • Lista de países
  • Para 7 días
  • Temperatura del agua
  • Mapa Satelital
  • El tiempo en el mapa
  • Informadores
  • user-avatar
    Iniciar sesión

    Tiempo cada hora Medina

    Hoy, 17 Diciembre, Lunes

    Tiempo Temperatura Precipitaciones Viento Presión Humedad
    00:00 +23°C° 0 mm 1 mps 694 mmHg 63%
    01:00 +23°C° 0 mm 1 mps 693 mmHg 64%
    02:00 +22°C° 0 mm 1 mps 693 mmHg 65%
    03:00 +22°C° 0 mm 1 mps 693 mmHg 66%
    04:00 +22°C° 0 mm 1 mps 693 mmHg 66%
    05:00 +21°C° 0 mm 1 mps 693 mmHg 66%
    06:00 +21°C° 0 mm 1 mps 692 mmHg 66%
    07:00 +22°C° 0 mm 1 mps 693 mmHg 61%
    08:00 +23°C° 0 mm 1 mps 693 mmHg 57%
    09:00 +23°C° 0 mm 1 mps 693 mmHg 52%
    10:00 +25°C° 0 mm 2 mps 693 mmHg 48%
    11:00 +26°C° 0 mm 3 mps 693 mmHg 44%
    12:00 +27°C° 0 mm 3 mps 693 mmHg 40%
    13:00 +27°C° 0 mm 4 mps 693 mmHg 38%
    14:00 +28°C° 0 mm 5 mps 693 mmHg 36%
    15:00 +28°C° 0 mm 5 mps 692 mmHg 34%
    16:00 +27°C° 0 mm 5 mps 692 mmHg 38%
    17:00 +26°C° 0 mm 5 mps 692 mmHg 42%
    18:00 +25°C° 0 mm 5 mps 693 mmHg 46%
    19:00 +25°C° 0 mm 4 mps 693 mmHg 48%
    20:00 +24°C° 0 mm 3 mps 693 mmHg 50%
    21:00 +23°C° 0 mm 2 mps 693 mmHg 52%
    22:00 +23°C° 0 mm 2 mps 693 mmHg 52%
    23:00 +22°C° 0 mm 1 mps 693 mmHg 52%

    Mañana, 18 Diciembre, Martes

    Tiempo Temperatura Precipitaciones Viento Presión Humedad
    00:00 +22°C° 0 mm 1 mps 693 mmHg 52%
    01:00 +21°C° 0 mm 1 mps 693 mmHg 51%
    02:00 +21°C° 0 mm 1 mps 693 mmHg 51%
    03:00 +20°C° 0 mm 1 mps 693 mmHg 50%
    04:00 +20°C° 0 mm 1 mps 693 mmHg 49%
    05:00 +19°C° 0 mm 1 mps 693 mmHg 47%
    06:00 +19°C° 0 mm 1 mps 693 mmHg 46%
    07:00 +20°C° 0 mm 1 mps 694 mmHg 42%
    08:00 +21°C° 0 mm 1 mps 694 mmHg 37%
    09:00 +22°C° 0 mm 1 mps 695 mmHg 33%
    10:00 +23°C° 0 mm 2 mps 695 mmHg 31%
    11:00 +24°C° 0 mm 2 mps 695 mmHg 29%
    12:00 +25°C° 0 mm 2 mps 694 mmHg 27%
    13:00 +26°C° 0 mm 2 mps 694 mmHg 25%
    14:00 +27°C° 0 mm 2 mps 693 mmHg 24%
    15:00 +27°C° 0 mm 2 mps 693 mmHg 23%
    16:00 +27°C° 0 mm 2 mps 693 mmHg 24%
    17:00 +26°C° 0 mm 2 mps 693 mmHg 25%
    18:00 +26°C° 0 mm 2 mps 693 mmHg 26%
    19:00 +25°C° 0 mm 2 mps 693 mmHg 28%
    20:00 +25°C° 0 mm 2 mps 693 mmHg 30%
    21:00 +24°C° 0 mm 2 mps 693 mmHg 32%
    22:00 +24°C° 0 mm 2 mps 693 mmHg 36%
    23:00 +22°C° 0 mm 3 mps 693 mmHg 39%

    Pasado mañana, 19 Diciembre, Miércoles

    Tiempo Temperatura Precipitaciones Viento Presión Humedad
    00:00 +22°C° 0 mm 3 mps 693 mmHg 43%
    01:00 +21°C° 0 mm 3 mps 693 mmHg 46%
    02:00 +20°C° 0 mm 2 mps 693 mmHg 50%
    03:00 +20°C° 0 mm 2 mps 692 mmHg 53%
    04:00 +19°C° 0 mm 2 mps 692 mmHg 55%
    05:00 +19°C° 0 mm 2 mps 692 mmHg 58%
    06:00 +19°C° 0 mm 2 mps 692 mmHg 60%
    07:00 +19°C° 0 mm 2 mps 693 mmHg 56%
    08:00 +20°C° 0 mm 2 mps 693 mmHg 52%
    09:00 +21°C° 0 mm 2 mps 694 mmHg 49%
    10:00 +24°C° 0 mm 2 mps 694 mmHg 41%
    11:00 +25°C° 0 mm 3 mps 694 mmHg 34%
    12:00 +27°C° 0 mm 3 mps 694 mmHg 26%
    13:00 +28°C° 0 mm 3 mps 693 mmHg 25%
    14:00 +29°C° 0 mm 4 mps 693 mmHg 23%
    15:00 +29°C° 0 mm 4 mps 692 mmHg 22%
    16:00 +29°C° 0 mm 4 mps 692 mmHg 24%
    17:00 +28°C° 0 mm 3 mps 692 mmHg 26%
    18:00 +27°C° 0 mm 3 mps 692 mmHg 28%
    19:00 +26°C° 0 mm 3 mps 693 mmHg 31%
    20:00 +25°C° 0 mm 2 mps 693 mmHg 33%
    21:00 +24°C° 0 mm 2 mps 693 mmHg 36%
    22:00 +24°C° 0 mm 2 mps 693 mmHg 38%
    23:00 +23°C° 0 mm 2 mps 693 mmHg 40%

    20 Diciembre, Jueves

    Tiempo Temperatura Precipitaciones Viento Presión Humedad
    00:00 +22°C° 0 mm 1 mps 693 mmHg 42%
    01:00 +22°C° 0 mm 1 mps 692 mmHg 43%
    02:00 +21°C° 0 mm 1 mps 692 mmHg 44%
    03:00 +21°C° 0 mm 1 mps 692 mmHg 46%
    04:00 +20°C° 0 mm 1 mps 692 mmHg 47%
    05:00 +20°C° 0 mm 1 mps 692 mmHg 48%
    06:00 +19°C° 0 mm 1 mps 692 mmHg 48%
    07:00 +21°C° 0 mm 1 mps 693 mmHg 45%
    08:00 +22°C° 0 mm 1 mps 693 mmHg 41%
    09:00 +23°C° 0 mm 1 mps 694 mmHg 38%
    10:00 +24°C° 0 mm 1 mps 694 mmHg 35%
    11:00 +25°C° 0 mm 1 mps 694 mmHg 33%
    12:00 +26°C° 0 mm 1 mps 694 mmHg 31%
    13:00 +26°C° 0 mm 1 mps 693 mmHg 30%
    14:00 +27°C° 0 mm 2 mps 693 mmHg 29%
    15:00 +27°C° 0 mm 2 mps 692 mmHg 27%
    16:00 +27°C° 0 mm 2 mps 693 mmHg 28%
    17:00 +26°C° 0 mm 2 mps 693 mmHg 29%
    18:00 +26°C° 0 mm 2 mps 693 mmHg 29%
    19:00 +25°C° 0 mm 2 mps 693 mmHg 29%
    20:00 +24°C° 0 mm 2 mps 693 mmHg 30%
    21:00 +24°C° 0 mm 1 mps 694 mmHg 30%
    22:00 +23°C° 0 mm 1 mps 694 mmHg 30%
    23:00 +22°C° 0 mm 1 mps 693 mmHg 30%

    21 Diciembre, Viernes

    Tiempo Temperatura Precipitaciones Viento Presión Humedad
    00:00 +22°C° 0 mm 1 mps 693 mmHg 30%
    01:00 +20°C° 0 mm 2 mps 693 mmHg 29%
    02:00 +19°C° 0 mm 2 mps 693 mmHg 28%
    03:00 +19°C° 0 mm 2 mps 693 mmHg 28%
    04:00 +18°C° 0 mm 2 mps 693 mmHg 29%
    05:00 +18°C° 0 mm 2 mps 693 mmHg 30%
    06:00 +17°C° 0 mm 2 mps 693 mmHg 31%
    07:00 +17°C° 0 mm 3 mps 694 mmHg 31%
    08:00 +18°C° 0 mm 4 mps 694 mmHg 31%
    09:00 +18°C° 0 mm 4 mps 695 mmHg 31%
    10:00 +19°C° 0 mm 4 mps 695 mmHg 29%
    11:00 +21°C° 0 mm 4 mps 694 mmHg 28%
    12:00 +22°C° 0 mm 4 mps 694 mmHg 26%
    13:00 +23°C° 0 mm 4 mps 694 mmHg 25%
    14:00 +23°C° 0 mm 4 mps 693 mmHg 25%
    15:00 +25°C° 0 mm 3 mps 693 mmHg 24%
    16:00 +25°C° 0 mm 3 mps 693 mmHg 25%
    17:00 +24°C° 0 mm 3 mps 693 mmHg 26%
    18:00 +24°C° 0 mm 3 mps 693 mmHg 27%
    19:00 +22°C° 0 mm 3 mps 693 mmHg 27%
    20:00 +22°C° 0 mm 3 mps 693 mmHg 28%
    21:00 +21°C° 0 mm 3 mps 693 mmHg 29%
    22:00 +20°C° 0 mm 3 mps 693 mmHg 29%
    23:00 +20°C° 0 mm 3 mps 693 mmHg 30%

    22 Diciembre, Sábado

    Tiempo Temperatura Precipitaciones Viento Presión Humedad
    00:00 +19°C° 0 mm 3 mps 693 mmHg 30%
    01:00 +18°C° 0 mm 3 mps 692 mmHg 31%
    02:00 +18°C° 0 mm 2 mps 692 mmHg 32%
    03:00 +17°C° 0 mm 2 mps 692 mmHg 33%
    04:00 +17°C° 0 mm 2 mps 692 mmHg 34%
    05:00 +16°C° 0 mm 2 mps 692 mmHg 34%
    06:00 +16°C° 0 mm 2 mps 692 mmHg 35%
    07:00 +16°C° 0 mm 3 mps 693 mmHg 34%
    08:00 +17°C° 0 mm 3 mps 693 mmHg 32%
    09:00 +18°C° 0 mm 4 mps 694 mmHg 31%
    10:00 +19°C° 0 mm 4 mps 694 mmHg 28%
    11:00 +21°C° 0 mm 4 mps 693 mmHg 25%
    12:00 +22°C° 0 mm 5 mps 693 mmHg 23%
    13:00 +23°C° 0 mm 4 mps 693 mmHg 21%
    14:00 +25°C° 0 mm 3 mps 692 mmHg 20%
    15:00 +26°C° 0 mm 3 mps 692 mmHg 18%
    16:00 +26°C° 0 mm 2 mps 692 mmHg 19%
    17:00 +25°C° 0 mm 2 mps 692 mmHg 20%
    18:00 +25°C° 0 mm 2 mps 692 mmHg 21%
    19:00 +24°C° 0 mm 2 mps 692 mmHg 22%
    20:00 +23°C° 0 mm 2 mps 692 mmHg 23%
    21:00 +21°C° 0 mm 2 mps 692 mmHg 25%
    22:00 +22°C° 0 mm 1 mps 692 mmHg 26%
    23:00 +21°C° 0 mm 1 mps 692 mmHg 27%
    Mostrar más